This is the latest recevied weather packets stored in our database for station/object DC7RY. If no packets are shown the sender has not sent any weather packets the latest 10 day(s).
| Time | Temp. | Humidity | Pressure | Rain* | Wind** | Luminosity | Snow |
|---|---|---|---|---|---|---|---|
| 1776927029 | 3.89° C | 76% | 1021.7 hPa | 0 mm | - | 38 W/m² | - |
| 1776926421 | 2.78° C | 78% | 1022.1 hPa | 0 mm | - | 37 W/m² | - |
| 1776925829 | 2.22° C | 81% | 1022.1 hPa | 0 mm | - | 33 W/m² | - |
| 1776925221 | 1.67° C | 84% | 1021.9 hPa | 0 mm | - | 29 W/m² | - |
| 1776924629 | 1.11° C | 87% | 1021.7 hPa | 0 mm | - | 28 W/m² | - |
| 1776924021 | 0.56° C | 89% | 1022 hPa | 0 mm | - | 27 W/m² | - |
| 1776923429 | 0.56° C | 91% | 1021.8 hPa | 0 mm | - | 26 W/m² | - |
| 1776922821 | 0° C | 92% | 1022.1 hPa | 0 mm | - | 26 W/m² | - |
| 1776922229 | 0° C | 92% | 1022.1 hPa | 0 mm | - | 24 W/m² | - |
| 1776921620 | -0.56° C | 94% | 1021.8 hPa | 0 mm | - | 22 W/m² | - |
| 1776921029 | -1.11° C | 95% | 1021.6 hPa | 0 mm | - | 20 W/m² | - |
| 1776920420 | -1.11° C | 97% | 1021.6 hPa | 0 mm | - | 18 W/m² | - |
| 1776919829 | -1.67° C | 97% | - | 0 mm | - | 15 W/m² | - |
| 1776919221 | -1.67° C | 97% | - | 0 mm | - | 11 W/m² | - |
| 1776918628 | -1.67° C | 97% | 1021.3 hPa | 0 mm | - | 6 W/m² | - |
| 1776918019 | -1.67° C | 97% | 1021.3 hPa | 0 mm | - | 2 W/m² | - |
| 1776917427 | -1.67° C | 97% | 1021.6 hPa | 0 mm | - | 0 W/m² | - |
| 1776916820 | -1.67° C | 97% | 1021 hPa | 0 mm | - | 0 W/m² | - |
| 1776916228 | -1.67° C | 96% | 1021.3 hPa | 0 mm | - | 0 W/m² | - |
| 1776915619 | -1.67° C | 96% | 1021.3 hPa | 0 mm | - | 0 W/m² | - |
| 1776915028 | -1.11° C | 96% | 1021.4 hPa | 0 mm | - | 0 W/m² | - |
| 1776914420 | -1.11° C | 96% | 1021.4 hPa | 0 mm | - | 0 W/m² | - |
| 1776913827 | -1.11° C | 96% | 1021.5 hPa | 0 mm | - | 0 W/m² | - |
| 1776913219 | -1.11° C | 95% | 1021.5 hPa | 0 mm | - | 0 W/m² | - |
| 1776912627 | -1.11° C | 95% | 1021.5 hPa | 0 mm | - | 0 W/m² | - |
* Rain latest hour (hover to see other rain measurements)
** Current wind speed in m/s (hover to see current wind gust speed)